• In Hungary
  • List of Countries
  • For 7 days
  • Water Temperature
  • Satellite Maps
  • Weather Map
  • News
  • Weather Widgets
  • user-avatar
    Login

    Hourly Weather Inshinskiy

    Today, 24 October, Wednesday

    Time Temperature Precipitation Wind Pressure Humidity
    00:00 +4°C° 0.1 mm 4 mps 729 mmHg 84%
    01:00 +4°C° 0.1 mm 4 mps 728 mmHg 83%
    02:00 +4°C° 0.1 mm 4 mps 727 mmHg 82%
    03:00 +3°C° 0.2 mm 5 mps 727 mmHg 82%
    04:00 +3°C° 0.2 mm 5 mps 726 mmHg 82%
    05:00 +3°C° 0.2 mm 5 mps 725 mmHg 81%
    06:00 +3°C° 0.1 mm 5 mps 725 mmHg 81%
    07:00 +3°C° 0.1 mm 5 mps 724 mmHg 80%
    08:00 +4°C° 0.1 mm 6 mps 724 mmHg 79%
    09:00 +4°C° 0.2 mm 6 mps 723 mmHg 79%
    10:00 +5°C° 0.2 mm 6 mps 723 mmHg 80%
    11:00 +5°C° 0.2 mm 6 mps 722 mmHg 80%
    12:00 +6°C° 0.1 mm 5 mps 722 mmHg 80%
    13:00 +6°C° 0.1 mm 5 mps 721 mmHg 80%
    14:00 +6°C° 0.1 mm 4 mps 721 mmHg 80%
    15:00 +7°C° 0.2 mm 3 mps 721 mmHg 84%
    16:00 +7°C° 0.2 mm 3 mps 721 mmHg 87%
    17:00 +6°C° 0.2 mm 2 mps 720 mmHg 91%
    18:00 +6°C° 0.7 mm 2 mps 720 mmHg 92%
    19:00 +5°C° 0.7 mm 3 mps 720 mmHg 92%
    20:00 +5°C° 0.7 mm 3 mps 720 mmHg 93%
    21:00 +5°C° 0.3 mm 3 mps 721 mmHg 93%
    22:00 +4°C° 0.3 mm 3 mps 721 mmHg 93%
    23:00 +4°C° 0.3 mm 4 mps 721 mmHg 93%

    Tomorrow, 25 October, Thursday

    Time Temperature Precipitation Wind Pressure Humidity
    00:00 +4°C° 0 mm 3 mps 721 mmHg 94%
    01:00 +3°C° 0 mm 3 mps 721 mmHg 94%
    02:00 +3°C° 0 mm 3 mps 721 mmHg 95%
    03:00 +2°C° 0 mm 3 mps 721 mmHg 96%
    04:00 +3°C° 0 mm 2 mps 721 mmHg 96%
    05:00 +3°C° 0 mm 2 mps 720 mmHg 96%
    06:00 +3°C° 0 mm 2 mps 721 mmHg 95%
    07:00 +3°C° 0 mm 2 mps 721 mmHg 94%
    08:00 +4°C° 0 mm 2 mps 721 mmHg 93%
    09:00 +4°C° 0.1 mm 2 mps 721 mmHg 90%
    10:00 +5°C° 0.1 mm 2 mps 721 mmHg 87%
    11:00 +4°C° 0.1 mm 3 mps 721 mmHg 84%
    12:00 +4°C° 0.4 mm 3 mps 721 mmHg 84%
    13:00 +4°C° 0.4 mm 4 mps 721 mmHg 84%
    14:00 +3°C° 0.4 mm 5 mps 721 mmHg 84%
    15:00 +3°C° 0.6 mm 5 mps 722 mmHg 84%
    16:00 +2°C° 0.6 mm 6 mps 722 mmHg 83%
    17:00 +2°C° 0.6 mm 6 mps 722 mmHg 83%
    18:00 +2°C° 0.4 mm 6 mps 723 mmHg 82%
    19:00 +1°C° 0.4 mm 6 mps 724 mmHg 82%
    20:00 +1°C° 0.4 mm 6 mps 724 mmHg 81%
    21:00 +1°C° 0.1 mm 6 mps 725 mmHg 81%
    22:00 -1°C° 0.1 mm 6 mps 725 mmHg 80%
    23:00 0°C° 0.1 mm 5 mps 726 mmHg 80%

    Day after tomorrow, 26 October, Friday

    Time Temperature Precipitation Wind Pressure Humidity
    00:00 0°C° 0 mm 5 mps 726 mmHg 79%
    01:00 -1°C° 0 mm 4 mps 727 mmHg 79%
    02:00 -1°C° 0 mm 4 mps 727 mmHg 79%
    03:00 -1°C° 0 mm 4 mps 728 mmHg 81%
    04:00 -1°C° 0 mm 4 mps 728 mmHg 84%
    05:00 -2°C° 0 mm 4 mps 729 mmHg 86%
    06:00 -1°C° 0 mm 4 mps 729 mmHg 86%
    07:00 -1°C° 0 mm 4 mps 730 mmHg 86%
    08:00 0°C° 0 mm 5 mps 730 mmHg 85%
    09:00 +1°C° 0 mm 5 mps 730 mmHg 80%
    10:00 +2°C° 0 mm 5 mps 731 mmHg 75%
    11:00 +2°C° 0 mm 6 mps 731 mmHg 69%
    12:00 +2°C° 0 mm 6 mps 731 mmHg 69%
    13:00 +2°C° 0 mm 6 mps 731 mmHg 69%
    14:00 +3°C° 0 mm 6 mps 731 mmHg 69%
    15:00 +2°C° 0.2 mm 5 mps 731 mmHg 73%
    16:00 +2°C° 0.2 mm 5 mps 732 mmHg 76%
    17:00 +2°C° 0.2 mm 5 mps 732 mmHg 80%
    18:00 +1°C° 0.1 mm 4 mps 732 mmHg 83%
    19:00 +1°C° 0.1 mm 4 mps 733 mmHg 86%
    20:00 0°C° 0.1 mm 4 mps 733 mmHg 89%
    21:00 0°C° 0 mm 4 mps 734 mmHg 89%
    22:00 0°C° 0 mm 4 mps 734 mmHg 89%
    23:00 +1°C° 0 mm 3 mps 735 mmHg 90%

    27 October, Saturday

    Time Temperature Precipitation Wind Pressure Humidity
    00:00 0°C° 0 mm 3 mps 735 mmHg 91%
    01:00 0°C° 0 mm 3 mps 735 mmHg 92%
    02:00 -1°C° 0 mm 3 mps 736 mmHg 94%
    03:00 -1°C° 0 mm 4 mps 736 mmHg 93%
    04:00 -1°C° 0 mm 4 mps 735 mmHg 92%
    05:00 -1°C° 0 mm 4 mps 735 mmHg 92%
    06:00 0°C° 0 mm 5 mps 735 mmHg 89%
    07:00 +1°C° 0 mm 6 mps 735 mmHg 87%
    08:00 0°C° 0 mm 7 mps 734 mmHg 84%
    09:00 +2°C° 0.7 mm 7 mps 733 mmHg 83%
    10:00 +2°C° 0.7 mm 8 mps 733 mmHg 81%
    11:00 +2°C° 0.7 mm 9 mps 732 mmHg 80%
    12:00 +3°C° 0.8 mm 9 mps 731 mmHg 81%
    13:00 +3°C° 0.8 mm 9 mps 730 mmHg 83%
    14:00 +5°C° 0.8 mm 9 mps 730 mmHg 84%
    15:00 +5°C° 0.7 mm 9 mps 730 mmHg 81%
    16:00 +5°C° 0.7 mm 8 mps 730 mmHg 78%
    17:00 +5°C° 0.7 mm 8 mps 730 mmHg 75%
    18:00 +4°C° 0 mm 8 mps 730 mmHg 75%
    19:00 +4°C° 0 mm 8 mps 731 mmHg 76%
    20:00 +2°C° 0 mm 8 mps 731 mmHg 76%
    21:00 +2°C° 0 mm 8 mps 732 mmHg 76%
    22:00 +2°C° 0 mm 8 mps 732 mmHg 76%
    23:00 +1°C° 0 mm 8 mps 733 mmHg 76%

    28 October, Sunday

    Time Temperature Precipitation Wind Pressure Humidity
    00:00 +1°C° 0 mm 8 mps 734 mmHg 77%
    01:00 0°C° 0 mm 8 mps 735 mmHg 77%
    02:00 -1°C° 0 mm 8 mps 736 mmHg 78%
    03:00 -1°C° 0 mm 7 mps 737 mmHg 79%
    04:00 -2°C° 0 mm 7 mps 738 mmHg 80%
    05:00 -2°C° 0 mm 6 mps 739 mmHg 80%
    06:00 -2°C° 0 mm 6 mps 740 mmHg 80%
    07:00 -2°C° 0 mm 6 mps 741 mmHg 81%
    08:00 -2°C° 0 mm 6 mps 742 mmHg 81%
    09:00 -1°C° 0 mm 6 mps 742 mmHg 78%
    10:00 0°C° 0 mm 5 mps 743 mmHg 75%
    11:00 +1°C° 0 mm 5 mps 744 mmHg 72%
    12:00 +1°C° 0 mm 5 mps 745 mmHg 70%
    13:00 +3°C° 0 mm 4 mps 745 mmHg 68%
    14:00 +3°C° 0 mm 4 mps 745 mmHg 67%
    15:00 +2°C° 0 mm 3 mps 746 mmHg 71%
    16:00 +1°C° 0 mm 3 mps 747 mmHg 76%
    17:00 +1°C° 0 mm 2 mps 747 mmHg 81%
    18:00 +1°C° 0 mm 2 mps 748 mmHg 83%
    19:00 +1°C° 0 mm 2 mps 748 mmHg 85%
    20:00 -1°C° 0 mm 2 mps 749 mmHg 87%
    21:00 +1°C° 0 mm 1 mps 749 mmHg 87%
    22:00 +1°C° 0 mm 1 mps 750 mmHg 87%
    23:00 +1°C° 0 mm 1 mps 750 mmHg 87%

    29 October, Monday

    Time Temperature Precipitation Wind Pressure Humidity
    00:00 +1°C° 0 mm 1 mps 750 mmHg 86%
    01:00 +1°C° 0 mm 1 mps 751 mmHg 84%
    02:00 +2°C° 0 mm 1 mps 751 mmHg 83%
    03:00 +2°C° 0 mm 1 mps 751 mmHg 82%
    04:00 +2°C° 0 mm 1 mps 751 mmHg 82%
    05:00 +2°C° 0 mm 1 mps 751 mmHg 81%
    06:00 +1°C° 0.1 mm 2 mps 751 mmHg 81%
    07:00 +1°C° 0.1 mm 2 mps 752 mmHg 81%
    08:00 +1°C° 0.1 mm 2 mps 752 mmHg 80%
    09:00 +2°C° 0.2 mm 2 mps 752 mmHg 81%
    10:00 +1°C° 0.2 mm 3 mps 752 mmHg 81%
    11:00 +1°C° 0.2 mm 3 mps 752 mmHg 81%
    12:00 +1°C° 0.3 mm 3 mps 751 mmHg 83%
    13:00 0°C° 0.3 mm 4 mps 751 mmHg 85%
    14:00 0°C° 0.3 mm 4 mps 751 mmHg 86%
    15:00 -1°C° 0.4 mm 5 mps 750 mmHg 87%
    16:00 -1°C° 0.4 mm 5 mps 750 mmHg 89%
    17:00 -2°C° 0.4 mm 6 mps 750 mmHg 90%
    18:00 -2°C° 0.1 mm 6 mps 750 mmHg 90%
    19:00 -2°C° 0.1 mm 6 mps 750 mmHg 90%
    20:00 -2°C° 0.1 mm 6 mps 749 mmHg 91%
    21:00 -2°C° 0.1 mm 6 mps 749 mmHg 91%
    22:00 -2°C° 0.1 mm 6 mps 749 mmHg 92%
    23:00 -2°C° 0.1 mm 6 mps 748 mmHg 93%

    30 October, Tuesday

    Time Temperature Precipitation Wind Pressure Humidity
    00:00 -1°C° 0.1 mm 6 mps 748 mmHg 93%
    01:00 -1°C° 0.1 mm 6 mps 748 mmHg 93%
    02:00 -1°C° 0.1 mm 6 mps 747 mmHg 94%
    03:00 -1°C° 0 mm 6 mps 747 mmHg 94%
    04:00 0°C° 0 mm 5 mps 747 mmHg 94%
    05:00 0°C° 0 mm 5 mps 747 mmHg 95%
    06:00 0°C° 0 mm 5 mps 747 mmHg 95%
    07:00 +1°C° 0 mm 6 mps 747 mmHg 94%
    08:00 +1°C° 0 mm 6 mps 747 mmHg 94%
    09:00 +1°C° 0 mm 6 mps 747 mmHg 93%
    10:00 +1°C° 0 mm 6 mps 747 mmHg 92%
    11:00 +1°C° 0 mm 6 mps 747 mmHg 92%
    12:00 +2°C° 0.1 mm 6 mps 748 mmHg 91%
    13:00 +2°C° 0.1 mm 6 mps 748 mmHg 91%
    14:00 +2°C° 0.1 mm 6 mps 748 mmHg 90%
    15:00 +2°C° 0 mm 6 mps 749 mmHg 90%
    16:00 +1°C° 0 mm 6 mps 749 mmHg 90%
    17:00 +1°C° 0 mm 6 mps 749 mmHg 90%
    18:00 +1°C° 0 mm 6 mps 750 mmHg 90%
    19:00 +1°C° 0 mm 6 mps 750 mmHg 90%
    20:00 +1°C° 0 mm 6 mps 750 mmHg 89%
    21:00 -1°C° 0 mm 6 mps 751 mmHg 89%
    22:00 -1°C° 0 mm 6 mps 751 mmHg 89%
    23:00 -1°C° 0 mm 6 mps 752 mmHg 89%
    Show more